Location: Newark
(34.9471°N, 136.1778°E)
Time: 03:08:52
(UTC+00:00)

Hubble Space Telescope - Visible Passes

Search period start: 13 December 2019 00:00
Search period end: 23 December 2019 00:00
Orbit: 536 x 540 km, 28.5° (Epoch: 12 December)

Date Brightness Start Highest point End Pass type
(mag) Time Alt. Az. Time Alt. Az. Time Alt. Az.
13 Dec 3.7 19:42:17 10° SSE 19:43:08 11° SSE 19:43:59 10° SE visible
13 Dec 2.8 21:20:18 10° SW 21:23:43 25° SSE 21:27:09 10° ESE visible
14 Dec 3.4 19:31:55 13° SSE 19:32:25 13° SSE 19:34:23 10° SE visible
14 Dec 2.6 21:09:30 10° SW 21:13:03 28° S 21:16:36 10° ESE visible
15 Dec 3.4 19:22:21 15° SSE 19:22:21 15° SSE 19:24:15 10° ESE visible
15 Dec 2.4 20:58:45 10° SW 21:02:23 30° S 21:06:02 10° ESE visible
16 Dec 3.5 19:12:40 15° SE 19:12:40 15° SE 19:13:55 10° ESE visible
16 Dec 2.2 20:48:01 10° WSW 20:51:43 32° S 20:55:25 10° ESE visible
17 Dec 3.8 19:02:53 13° ESE 19:02:53 13° ESE 19:03:30 10° ESE visible
17 Dec 2.1 20:38:14 15° SW 20:41:04 33° S 20:44:48 10° ESE visible
18 Dec 2.0 20:28:22 21° SW 20:30:25 33° S 20:34:09 10° ESE visible
19 Dec 2.0 20:18:27 26° SW 20:19:45 33° S 20:23:29 10° ESE visible
20 Dec 1.9 20:08:31 30° SSW 20:09:05 31° S 20:12:47 10° ESE visible
21 Dec 2.1 19:58:33 30° S 19:58:33 30° S 20:02:04 10° SE visible
22 Dec 2.5 19:48:35 25° S 19:48:35 25° S 19:51:18 10° SE visible
22 Dec 3.2 21:26:30 10° SW 21:28:24 13° SSW 21:30:18 10° S visible
